COSMOS 2310

Satellite information

Favourite Embed

Satellite Type and Status

PAYLOADIN ORBIT

Key statistics

Satellite COSMOS 2310 at a glance.

Uptime

11126

Days in orbit

Revolutions

≈ 13.7

Per day

Orbit

LEO

Low Earth Orbit

Inclination

83.0

Latest

Satellite identification and parameters

Extended collection of information and parameters for COSMOS 2310.

Object identification

Identified? True

Debris? False

Object name: COSMOS 2310

International designator: 1995-012A

Object number (NORAD): 23526

Object ID (CCSDS): 23526

Country: COMMONWEALTH OF INDEPENDENT STATES (CIS)

Current information (Y/N): Y

RCS size: LARGE

Orbital parameters

Period: 104.934 minutes

Inclination: 82.951 deg

SMA: 7369.471 km

Apoapsis: 1007.934 km

Periapsis: 974.738 km

RAAN: 359.5458 deg

Eccentricy: 0.00225224

Argument of periapsis: 11.2995 deg

Mean anomaly: 17.5576 deg

Mean motion: 13.72297611 rev/day

Mean motion (dot): 0.00000061 rev/day2

B* drag term: 0.000050522577 1/REarth

Two-line elements (TLE)

Creation date: Sept. 4, 2025, 10:13 a.m.

Reference frame: TEME

Reference center: EARTH

Epoch: Sept. 4, 2025, 7:23 a.m. UTC

TLE line 0: 0 COSMOS 2310

TLE line 1: 1 23526U 95012A 25247.30770439 .00000061 00000-0 50523-4 0 9994

TLE line 2: 2 23526 82.9510 359.5458 0022522 11.2995 17.5576 13.72297611524713

Live tracking on map

Real-time ground track for satellite COSMOS 2310.

In-orbit conjunctions

A list of the most updated potential collisions computed for object COSMOS 2310.

Target Orbit TCA Probability of collision Miss distance Type
FENGYUN 1C DEB SSO 2024-07-14 06:08:06 0.0004375006 437.0 (m) DEBRIS

Associated space launch

There is no information available about the launch of this satellite, yet. Check back as we update our databases every day.

Latest news about this satellite

There are no fresh news available about this satellite. Check back as we update our databases every day.


Newsletter sign-up

Weekly statistics, charts and insights to help you stay on top of the space industry.